Location: Newark
(44.2003°N, 3.2583°E)
Time: 20:17:03
(UTC+00:00)

Explorer 7 - Pass Details

Date: 20 October 2019
Orbit: 485 x 680 km, 50.3° (Epoch: 14 November)

Event Time Altitude Azimuth Distance (km) Brightness Sun altitude
Rises 16:40:40 0° 297° (WNW) 2,601 11.1 1.7°
Reaches altitude 10° 16:42:49 10° 294° (WNW) 1,735 10.3 1.4°
Maximum altitude 16:46:43 66° 212° (SSW) 583 7.3 0.7°
Drops below altitude 10° 16:50:50 10° 131° (SE) 1,831 9.2 0.0°
Sets 16:53:10 0° 128° (SE) 2,760 10.0 -0.4°
